Weather History for Toluca Jose Maria, Mexico

Change the Weather History Date:

Friday, December 6, 2013

  Actual Average Record
Temperature  
Mean Temperature 52 °F -  
Max Temperature 73 °F 66 °F 73 °F (2013)
Min Temperature 32 °F 32 °F 24 °F (1999)
Degree Days  
Heating Degree Days 12    
Growing Degree Days 2 (Base 50)    
Moisture  
Dew Point 34 °F    
Average Humidity 59    
Maximum Humidity 93    
Minimum Humidity 14    
Precipitation  
Precipitation 0.00 in - - ()
Sea Level Pressure  
Sea Level Pressure 30.21 in    
Wind  
Wind Speed 2 mph ()    
Max Wind Speed 13 mph    
Max Gust Speed -    
Visibility 6.4 miles    
Events      
Averages and records for this station are not official NWS values.
T = Trace of Precipitation, MM = Missing Value Source: Averaged Metar Reports

Daily Weather History Graph

Daily Weather History Graph

Search for Another Location

Airport:

Trip Planner

Search our weather history database for the weather conditions in past years. The results will help you decide how hot, cold, wet, or windy it might be!

Date:

Astronomy

Dec. 06, 2013 Rise Set
Actual Time 6:59 AM CST 5:59 PM CST
Civil Twilight 6:35 AM CST 6:23 PM CST
Nautical Twilight 6:08 AM CST 6:50 PM CST
Astronomical Twilight 5:41 AM CST 7:17 PM CST
Moon 10:23 AM CST (12/6) 10:11 PM CST (12/6)
Length of Visible Light 11h 48m
Length of Day
11h 00m
Waxing Crescent, 19% of the Moon is Illuminated
Dec 6
Waxing Crescent
Dec 9
First Quarter
Dec 17
Full
Dec 25
Last Quarter
Jan 1
New

Hourly Weather History & Observations

Time (CST) Temp. Windchill Dew Point Humidity Pressure Visibility Wind Dir Wind Speed Gust Speed Precip Events Conditions
12:41 AM 42.8 °F - 37.4 °F 81% 30.38 in 5.0 mi Calm Calm - N/A   Clear
1:43 AM 37.4 °F - 33.8 °F 87% 30.37 in 4.0 mi Calm Calm - N/A   Clear
2:43 AM 39.2 °F - 33.8 °F 81% 29.86 in 4.0 mi Calm Calm - N/A   Clear
3:40 AM 37.4 °F - 33.8 °F 87% 30.36 in 3.0 mi Calm Calm - N/A   Mostly Cloudy
4:41 AM 35.6 °F - 32.0 °F 87% 30.36 in 2.0 mi Calm Calm - N/A   Mostly Cloudy
5:45 AM 37.4 °F 33.8 °F 33.8 °F 87% 29.96 in 2.0 mi SW 4.6 mph - N/A   Partly Cloudy
6:45 AM 32.0 °F 26.4 °F 30.2 °F 93% 30.38 in 4.0 mi NE 5.8 mph - N/A   Partly Cloudy
7:43 AM 35.6 °F - 32.0 °F 87% 30.41 in 6.0 mi Calm Calm - N/A   Clear
8:44 AM 44.6 °F - 37.4 °F 76% 30.03 in 4.0 mi Calm Calm - N/A   Clear
9:45 AM 55.4 °F - 39.2 °F 54% 30.43 in 4.0 mi ESE 2.3 mph - N/A   Clear
10:45 AM 62.6 °F - 41.0 °F 45% 30.42 in 4.0 mi East 3.5 mph - N/A   Clear
11:43 AM 68.0 °F - 37.4 °F 33% 29.87 in 4.0 mi ESE 3.5 mph - N/A   Clear
12:45 PM 71.6 °F - 19.4 °F 14% 30.36 in 7.0 mi SSW 6.9 mph - N/A   Partly Cloudy
1:46 PM 71.6 °F - 19.4 °F 14% 30.33 in 7.0 mi ENE 3.5 mph - N/A   Partly Cloudy
2:46 PM 73.4 °F - 28.4 °F 19% 29.78 in 7.0 mi North 6.9 mph - N/A   Partly Cloudy
3:44 PM 71.6 °F - 28.4 °F 20% 30.30 in 10.0 mi ESE 11.5 mph - N/A   Partly Cloudy
4:41 PM 69.8 °F - 32.0 °F 25% 30.31 in 10.0 mi South 12.7 mph - N/A   Partly Cloudy
5:41 PM 66.2 °F - 33.8 °F 30% 29.85 in 10.0 mi South 9.2 mph - N/A   Clear
6:41 PM 59.0 °F - 41.0 °F 51% 30.34 in 10.0 mi South 6.9 mph - N/A   Clear
7:40 PM 53.6 °F - 41.0 °F 62% 30.36 in 10.0 mi NNE 5.8 mph - N/A   Clear
8:41 PM 53.6 °F - 39.2 °F 58% 29.96 in 10.0 mi Calm Calm - N/A   Clear
9:47 PM 48.2 °F - 39.2 °F 71% 30.40 in 10.0 mi Calm Calm - N/A   Clear
10:42 PM 46.4 °F - 39.2 °F 76% 30.41 in 8.0 mi Calm Calm - N/A   Clear
11:46 PM 42.8 °F 41.1 °F 39.2 °F 87% 29.91 in 8.0 mi East 3.5 mph - N/A   Clear